(675) Ludmilla
ephemeris date magn radius delta ra dec elong phase
Opposition16 Apr 202612.83.229 AU2.241 AU13h21m-21°22'168.1°3.7°
Today13 Jun 202613.73.281 AU2.689 AU12h57m-15°47'117.3°16.0°
(675) Ludmilla - 2026-06-13
astro.vanbuitenen.nl


 
-1 year
-1 month
-1 day
Now
+1 day
+1 month
+1 year

The interactive orbit chart above shows the body's path through the solar system and its position at the given date. Green and blue lines are shown perpendicular to the ecliptic plane: Green if the path is above the ecliptic plane, blue if it is below. (Left-click and drag to rotate the view; Right-click and drag to move the view; Use scroll wheel to zoom in our out.)

The orbital elements of Ludmilla are:

            e (Eccentricity)                : 0.2048416
            a (Semimajor axis)              : 2.7672670
            i (Inclination)                 : 9.81081
            Ω (Longitude of ascending node) : 262.98793
            ω (Argument of perihelion)      : 152.33940
            M (Mean anomaly)                : 149.25728
            Epoch                           : 2026 Jun 09

            L (Longitude of perihelion)     : 235.67294
            B (Latitude of perihelion)      : 4.53702
            P (Orbital period in years)     : 4.60            
        

The light curve chart below shows the estimated development of the minor planet's magnitude.


The all-sky chart below shows the path of the minor planet over the same period as the light curve. The current position is marked yellow.





The following chart shows the path of the minor planet in the next few days. The field of view is optimized for (~10x50) binoculars and finderscopes.




Ephemerides:
Date       Time       RA (2000)    DEC (2000)    delta   radius  elong  phase   PA    magn
2026-06-13 00:00 UT   12 57 26.3   -15 47 02     2.689    3.281  117.3   16.0   108   13.7 
2026-06-13 12:28 UT   12 57 30.7   -15 45 22     2.696    3.282  116.8   16.0   108   13.7 
2026-06-14 00:00 UT   12 57 35.1   -15 43 51     2.702    3.282  116.4   16.1   109   13.7 
2026-06-15 00:00 UT   12 57 45.0   -15 40 47     2.715    3.283  115.5   16.2   109   13.7 
2026-06-16 00:00 UT   12 57 56.1   -15 37 51     2.729    3.284  114.6   16.3   109   13.8 
2026-06-17 00:00 UT   12 58 08.3   -15 35 04     2.742    3.284  113.6   16.5   109   13.8 
2026-06-18 00:00 UT   12 58 21.6   -15 32 24     2.756    3.285  112.7   16.6   109   13.8 
2026-06-19 00:00 UT   12 58 36.1   -15 29 52     2.769    3.286  111.8   16.7   109   13.8 
2026-06-20 00:00 UT   12 58 51.7   -15 27 27     2.783    3.286  110.9   16.8   110   13.8 
2026-06-21 00:00 UT   12 59 08.3   -15 25 11     2.797    3.287  110.1   16.9   110   13.8 
2026-06-22 00:00 UT   12 59 26.1   -15 23 03     2.811    3.288  109.2   17.0   110   13.8 
2026-06-23 00:00 UT   12 59 44.9   -15 21 02     2.825    3.289  108.3   17.1   110   13.9 
2026-06-24 00:00 UT   13 00 04.8   -15 19 09     2.839    3.289  107.4   17.1   110   13.9 
2026-06-25 00:00 UT   13 00 25.7   -15 17 23     2.853    3.290  106.5   17.2   110   13.9 
2026-06-26 00:00 UT   13 00 47.6   -15 15 46     2.867    3.291  105.7   17.3   111   13.9 
2026-06-27 00:00 UT   13 01 10.5   -15 14 15     2.882    3.291  104.8   17.4   111   13.9 
2026-06-28 00:00 UT   13 01 34.5   -15 12 52     2.896    3.292  103.9   17.4   111   13.9 
2026-06-29 00:00 UT   13 01 59.4   -15 11 37     2.910    3.293  103.1   17.5   111   13.9 
2026-06-30 00:00 UT   13 02 25.3   -15 10 29     2.925    3.293  102.2   17.6   111   13.9 
2026-07-01 00:00 UT   13 02 52.2   -15 09 28     2.939    3.294  101.4   17.6   111   14.0 
2026-07-02 00:00 UT   13 03 20.0   -15 08 34     2.954    3.295  100.5   17.7   111   14.0 
2026-07-03 00:00 UT   13 03 48.8   -15 07 48     2.968    3.295   99.7   17.7   111   14.0 
2026-07-04 00:00 UT   13 04 18.5   -15 07 08     2.983    3.296   98.8   17.7   111   14.0 
2026-07-05 00:00 UT   13 04 49.1   -15 06 36     2.997    3.297   98.0   17.8   112   14.0 
2026-07-06 00:00 UT   13 05 20.6   -15 06 11     3.012    3.297   97.2   17.8   112   14.0 
2026-07-07 00:00 UT   13 05 53.0   -15 05 52     3.027    3.298   96.4   17.8   112   14.0 
2026-07-08 00:00 UT   13 06 26.3   -15 05 40     3.041    3.298   95.5   17.9   112   14.0 
2026-07-09 00:00 UT   13 07 00.5   -15 05 35     3.056    3.299   94.7   17.9   112   14.1 
2026-07-10 00:00 UT   13 07 35.5   -15 05 37     3.071    3.300   93.9   17.9   112   14.1 
2026-07-11 00:00 UT   13 08 11.4   -15 05 45     3.086    3.300   93.1   17.9   112   14.1 
2026-07-12 00:00 UT   13 08 48.2   -15 06 00     3.100    3.301   92.3   17.9   112   14.1 
2026-07-13 00:00 UT   13 09 25.8   -15 06 21     3.115    3.301   91.5   17.9   112   14.1 


    Terminology:
            
    delta:  distance between minor planet and earth in AU
    radius: distance between minor planet and sun in AU
    magn:   magnitude (brightness) estimate    
    ra:     right ascension in hours (24h = 360deg)
    dec:    declination in degrees
    elong:  elongation in degrees (angle sun-earth-minor planet)    
    phase:  phase angle in degrees (angle sun-minor planet-earth)        
    AU:     Astronomical Unit (mean distance between earth and sun: 149597870.7 km
    

Orbital elements provided by the MPC (Minor Planet Center).
Calculations by a modified version of AAPlus, a C# implementation of the AA+ project by PJ Naughter from the algorithms presented in the book "Astronomical Algorithms" by Jean Meeus.
NGC2000 dso catalog and star labels from VizieR as provided by the Strasbourg astronomical Data Center.
Tycho2 catalog from the ESO archive.